Time,TemperatureF,DewpointF,PressureIn,WindDirection,WindDirectionDegrees,WindSpeedMPH,WindSpeedGustMPH,Humidity,HourlyPrecipIn,Conditions,Clouds,dailyrainin,SoftwareType,DateUTC
2013-12-02 00:56:00,35.2,26.8,29.14,ESE,113,1.6,1.6,71,0.00,,,0.00,WUHU21623XXSP,2013-12-02 06:56:00,
2013-12-02 01:56:00,34.9,26.5,29.14,SE,135,0.0,0.0,71,0.00,,,0.00,WUHU21623XXSP,2013-12-02 07:56:00,
2013-12-02 02:56:00,35.1,27.0,29.12,ESE,113,3.4,3.4,72,0.00,,,0.00,WUHU21623XXSP,2013-12-02 08:56:00,
2013-12-02 03:56:00,34.5,26.8,29.10,SE,135,0.0,0.0,73,0.00,,,0.00,WUHU21623XXSP,2013-12-02 09:56:00,
2013-12-02 04:56:00,34.5,27.4,29.08,SE,135,2.9,2.9,75,0.00,,,0.00,WUHU21623XXSP,2013-12-02 10:56:00,
2013-12-02 05:48:00,34.3,27.5,29.07,SE,135,2.0,2.0,76,0.00,,,0.00,WUHU21623XXSP,2013-12-02 11:48:00,
2013-12-02 05:49:00,34.3,27.5,29.07,SE,135,2.0,2.0,76,0.00,,,0.00,WUHU21623XXSP,2013-12-02 11:49:00,
2013-12-02 05:54:00,34.3,27.5,29.07,SSE,157,0.0,4.5,76,0.00,,,0.00,WUHU21623XXSP,2013-12-02 11:54:00,
2013-12-02 05:59:00,34.3,27.5,29.07,SE,135,3.4,4.9,76,0.00,,,0.00,WUHU21623XXSP,2013-12-02 11:59:00,
2013-12-02 06:04:00,34.3,27.8,29.07,SSE,157,1.3,6.0,77,0.00,,,0.00,WUHU21623XXSP,2013-12-02 12:04:00,
2013-12-02 06:09:00,34.3,27.8,29.07,SE,135,6.9,6.9,77,0.00,,,0.00,WUHU21623XXSP,2013-12-02 12:09:00,
2013-12-02 06:14:00,34.3,27.8,29.07,SE,135,0.0,6.9,77,0.00,,,0.00,WUHU21623XXSP,2013-12-02 12:14:00,
2013-12-02 06:19:00,34.3,27.8,29.07,SSE,157,0.0,7.2,77,0.00,,,0.00,WUHU21623XXSP,2013-12-02 12:19:00,
2013-12-02 06:24:00,34.3,27.8,29.07,SE,135,5.8,7.2,77,0.00,,,0.00,WUHU21623XXSP,2013-12-02 12:24:00,
2013-12-02 06:29:00,34.3,27.8,29.07,SE,135,3.6,6.0,77,0.00,,,0.00,WUHU21623XXSP,2013-12-02 12:29:00,
2013-12-02 06:34:00,34.3,27.8,29.07,SE,135,6.7,6.7,77,0.00,,,0.00,WUHU21623XXSP,2013-12-02 12:34:00,
2013-12-02 06:39:00,34.3,27.8,29.07,SE,135,0.0,7.8,77,0.00,,,0.00,WUHU21623XXSP,2013-12-02 12:39:00,
2013-12-02 06:44:00,34.3,27.8,29.07,SSE,157,5.8,7.8,77,0.00,,,0.00,WUHU21623XXSP,2013-12-02 12:44:00,
2013-12-02 06:49:00,34.3,27.8,29.07,SE,135,5.6,5.8,77,0.00,,,0.00,WUHU21623XXSP,2013-12-02 12:49:00,
2013-12-02 06:54:00,34.3,27.8,29.07,SE,135,2.0,6.9,77,0.00,,,0.00,WUHU21623XXSP,2013-12-02 12:54:00,
2013-12-02 06:59:00,34.3,27.8,29.07,SE,135,4.5,7.2,77,0.00,,,0.00,WUHU21623XXSP,2013-12-02 12:59:00,
2013-12-02 07:04:00,34.3,27.8,29.07,SE,135,1.1,7.2,77,0.00,,,0.00,WUHU21623XXSP,2013-12-02 13:04:00,
2013-12-02 07:09:00,34.3,27.8,29.06,SE,135,1.1,8.7,77,0.00,,,0.00,WUHU21623XXSP,2013-12-02 13:09:00,
2013-12-02 07:14:00,34.3,27.8,29.07,SE,135,0.0,8.7,77,0.00,,,0.00,WUHU21623XXSP,2013-12-02 13:14:00,
2013-12-02 07:19:00,34.5,28.0,29.06,SE,135,1.6,2.5,77,0.00,,,0.00,WUHU21623XXSP,2013-12-02 13:19:00,
2013-12-02 07:24:00,34.5,28.0,29.07,SE,135,1.3,4.0,77,0.00,,,0.00,WUHU21623XXSP,2013-12-02 13:24:00,
2013-12-02 07:29:00,34.5,28.0,29.07,SE,135,0.0,7.6,77,0.00,,,0.00,WUHU21623XXSP,2013-12-02 13:29:00,
2013-12-02 07:34:00,34.5,28.0,29.07,NE,45,0.0,7.6,77,0.00,,,0.00,WUHU21623XXSP,2013-12-02 13:34:00,
2013-12-02 07:39:00,34.7,28.1,29.07,SE,135,5.6,7.6,77,0.00,,,0.00,WUHU21623XXSP,2013-12-02 13:39:00,
2013-12-02 07:44:00,34.7,28.1,29.06,SE,135,0.0,5.6,77,0.00,,,0.00,WUHU21623XXSP,2013-12-02 13:44:00,
2013-12-02 07:49:00,34.9,28.3,29.06,SE,135,6.9,6.9,77,0.00,,,0.00,WUHU21623XXSP,2013-12-02 13:49:00,
2013-12-02 07:54:00,34.9,28.3,29.06,SE,135,7.4,7.4,77,0.00,,,0.00,WUHU21623XXSP,2013-12-02 13:54:00,
2013-12-02 07:59:00,35.1,28.5,29.06,SE,135,2.2,7.4,77,0.00,,,0.00,WUHU21623XXSP,2013-12-02 13:59:00,
2013-12-02 08:04:00,35.2,28.7,29.06,SE,135,0.0,2.2,77,0.00,,,0.00,WUHU21623XXSP,2013-12-02 14:04:00,
2013-12-02 08:09:00,35.2,28.7,29.06,East,90,0.0,4.5,77,0.00,,,0.00,WUHU21623XXSP,2013-12-02 14:09:00,
2013-12-02 08:14:00,35.2,28.7,29.06,SE,135,0.0,4.5,77,0.00,,,0.00,WUHU21623XXSP,2013-12-02 14:14:00,
2013-12-02 08:19:00,35.4,28.9,29.06,SE,135,0.0,2.9,77,0.00,,,0.00,WUHU21623XXSP,2013-12-02 14:19:00,
2013-12-02 08:24:00,35.4,28.9,29.06,SE,135,2.2,2.9,77,0.00,,,0.00,WUHU21623XXSP,2013-12-02 14:24:00,
2013-12-02 08:29:00,35.8,29.2,29.06,ESE,112,0.0,3.6,77,0.00,,,0.00,WUHU21623XXSP,2013-12-02 14:29:00,
2013-12-02 08:34:00,35.8,29.2,29.06,SE,135,4.0,4.0,77,0.00,,,0.00,WUHU21623XXSP,2013-12-02 14:34:00,
2013-12-02 08:39:00,35.8,29.2,29.06,East,90,2.0,4.0,77,0.00,,,0.00,WUHU21623XXSP,2013-12-02 14:39:00,
2013-12-02 08:44:00,36.0,29.4,29.06,SSE,157,0.0,4.0,77,0.00,,,0.00,WUHU21623XXSP,2013-12-02 14:44:00,
2013-12-02 08:49:00,36.1,29.6,29.05,SE,135,0.0,2.9,77,0.00,,,0.00,WUHU21623XXSP,2013-12-02 14:49:00,
2013-12-02 08:54:00,36.3,29.8,29.05,SE,135,5.1,5.6,77,0.00,,,0.00,WUHU21623XXSP,2013-12-02 14:54:00,
2013-12-02 08:59:00,36.3,29.8,29.05,SE,135,0.0,5.6,77,0.00,,,0.00,WUHU21623XXSP,2013-12-02 14:59:00,
2013-12-02 09:04:00,36.3,29.8,29.05,SE,135,0.7,6.3,77,0.00,,,0.00,WUHU21623XXSP,2013-12-02 15:04:00,
2013-12-02 09:09:00,36.7,29.9,29.05,SE,135,7.4,7.4,77,0.00,,,0.00,WUHU21623XXSP,2013-12-02 15:09:00,
2013-12-02 09:14:00,36.9,30.0,29.05,SE,135,0.0,7.4,76,0.00,,,0.00,WUHU21623XXSP,2013-12-02 15:14:00,
2013-12-02 09:19:00,37.0,30.2,29.05,NE,45,0.0,4.7,76,0.00,,,0.00,WUHU21623XXSP,2013-12-02 15:19:00,
2013-12-02 09:24:00,37.4,30.5,29.05,SE,135,5.8,5.8,76,0.00,,,0.00,WUHU21623XXSP,2013-12-02 15:24:00,
2013-12-02 09:29:00,37.6,30.7,29.05,SE,135,0.0,5.8,76,0.00,,,0.00,WUHU21623XXSP,2013-12-02 15:29:00,
2013-12-02 09:34:00,37.9,31.0,29.05,East,90,4.7,5.8,76,0.00,,,0.00,WUHU21623XXSP,2013-12-02 15:34:00,
2013-12-02 09:39:00,38.1,30.9,29.05,SSE,157,7.2,7.2,75,0.00,,,0.00,WUHU21623XXSP,2013-12-02 15:39:00,
2013-12-02 09:44:00,38.5,31.2,29.04,SSE,157,6.0,7.2,75,0.00,,,0.00,WUHU21623XXSP,2013-12-02 15:44:00,
2013-12-02 09:49:00,38.8,31.6,29.04,SE,135,0.0,6.0,75,0.00,,,0.00,WUHU21623XXSP,2013-12-02 15:49:00,
2013-12-02 09:54:00,39.2,31.9,29.03,SE,135,4.5,6.9,75,0.00,,,0.00,WUHU21623XXSP,2013-12-02 15:54:00,
2013-12-02 09:59:00,39.4,31.7,29.03,ESE,112,0.0,6.9,74,0.00,,,0.00,WUHU21623XXSP,2013-12-02 15:59:00,
2013-12-02 10:04:00,39.7,32.1,29.02,SE,135,0.9,4.0,74,0.00,,,0.00,WUHU21623XXSP,2013-12-02 16:04:00,
2013-12-02 10:09:00,39.9,32.3,29.02,SE,135,0.0,4.0,74,0.00,,,0.00,WUHU21623XXSP,2013-12-02 16:09:00,
2013-12-02 10:14:00,40.1,32.1,29.02,SE,135,3.6,4.7,73,0.00,,,0.00,WUHU21623XXSP,2013-12-02 16:14:00,
2013-12-02 10:19:00,40.3,32.3,29.02,ESE,112,5.6,5.6,73,0.00,,,0.00,WUHU21623XXSP,2013-12-02 16:19:00,
2013-12-02 10:24:00,40.8,32.8,29.02,ESE,112,1.3,9.6,73,0.00,,,0.00,WUHU21623XXSP,2013-12-02 16:24:00,
2013-12-02 10:29:00,41.2,33.2,29.02,SE,135,5.6,9.6,73,0.00,,,0.00,WUHU21623XXSP,2013-12-02 16:29:00,
2013-12-02 10:34:00,41.5,33.2,29.02,SSE,157,10.7,10.7,72,0.00,,,0.00,WUHU21623XXSP,2013-12-02 16:34:00,
2013-12-02 10:39:00,42.1,33.4,29.02,SE,135,7.2,10.7,71,0.00,,,0.00,WUHU21623XXSP,2013-12-02 16:39:00,
2013-12-02 10:44:00,42.4,33.8,29.02,SE,135,2.5,8.1,71,0.00,,,0.00,WUHU21623XXSP,2013-12-02 16:44:00,
2013-12-02 10:49:00,42.6,33.9,29.01,South,180,10.7,10.7,71,0.00,,,0.00,WUHU21623XXSP,2013-12-02 16:49:00,
2013-12-02 10:54:00,42.6,33.6,29.00,SE,135,1.3,10.7,70,0.00,,,0.00,WUHU21623XXSP,2013-12-02 16:54:00,
2013-12-02 10:59:00,43.0,34.0,29.00,SE,135,3.4,6.0,70,0.00,,,0.00,WUHU21623XXSP,2013-12-02 16:59:00,
2013-12-02 11:04:00,43.0,33.6,29.00,ESE,112,6.9,7.2,69,0.00,,,0.00,WUHU21623XXSP,2013-12-02 17:04:00,
2013-12-02 11:09:00,43.2,33.7,29.00,ESE,112,2.9,7.2,69,0.00,,,0.00,WUHU21623XXSP,2013-12-02 17:09:00,
2013-12-02 11:14:00,43.2,33.7,29.00,SSE,157,6.9,6.9,69,0.00,,,0.00,WUHU21623XXSP,2013-12-02 17:14:00,
2013-12-02 11:19:00,43.3,33.9,29.00,SE,135,0.0,6.9,69,0.00,,,0.00,WUHU21623XXSP,2013-12-02 17:19:00,
2013-12-02 11:24:00,43.3,33.9,29.00,SE,135,4.3,4.3,69,0.00,,,0.00,WUHU21623XXSP,2013-12-02 17:24:00,
2013-12-02 11:29:00,43.5,34.1,29.00,SE,135,2.2,4.3,69,0.00,,,0.00,WUHU21623XXSP,2013-12-02 17:29:00,
2013-12-02 11:34:00,43.5,33.7,29.00,ESE,112,2.0,4.3,68,0.00,,,0.00,WUHU21623XXSP,2013-12-02 17:34:00,
2013-12-02 11:39:00,43.7,33.8,29.00,SSE,157,0.0,3.1,68,0.00,,,0.00,WUHU21623XXSP,2013-12-02 17:39:00,
2013-12-02 11:44:00,43.7,33.8,29.00,SE,135,5.8,5.8,68,0.00,,,0.00,WUHU21623XXSP,2013-12-02 17:44:00,
2013-12-02 11:49:00,43.9,34.0,28.99,SE,135,0.0,6.5,68,0.00,,,0.00,WUHU21623XXSP,2013-12-02 17:49:00,
2013-12-02 11:54:00,44.1,34.2,29.00,SSE,157,3.8,6.5,68,0.00,,,0.00,WUHU21623XXSP,2013-12-02 17:54:00,
2013-12-02 11:59:00,44.4,34.5,29.00,SE,135,3.8,4.3,68,0.00,,,0.00,WUHU21623XXSP,2013-12-02 17:59:00,
2013-12-02 12:04:00,44.8,34.8,28.99,SE,135,6.9,6.9,68,0.00,,,0.00,WUHU21623XXSP,2013-12-02 18:04:00,
2013-12-02 12:09:00,45.0,34.6,28.99,SE,135,6.3,11.2,67,0.00,,,0.00,WUHU21623XXSP,2013-12-02 18:09:00,
2013-12-02 12:14:00,45.0,34.3,28.99,SSE,157,3.6,11.2,66,0.00,,,0.00,WUHU21623XXSP,2013-12-02 18:14:00,
2013-12-02 12:19:00,45.0,34.3,28.98,SE,135,1.8,7.6,66,0.00,,,0.00,WUHU21623XXSP,2013-12-02 18:19:00,
2013-12-02 12:24:00,45.0,34.3,28.98,SE,135,1.1,5.8,66,0.00,,,0.00,WUHU21623XXSP,2013-12-02 18:24:00,
2013-12-02 12:29:00,45.1,34.4,28.98,SSE,157,8.5,8.5,66,0.00,,,0.00,WUHU21623XXSP,2013-12-02 18:29:00,
2013-12-02 12:34:00,45.5,34.6,28.98,SE,135,3.1,8.5,66,0.00,,,0.00,WUHU21623XXSP,2013-12-02 18:34:00,
2013-12-02 12:39:00,45.7,34.6,28.97,SSE,157,7.2,7.2,65,0.00,,,0.00,WUHU21623XXSP,2013-12-02 18:39:00,
2013-12-02 12:44:00,46.0,34.9,28.97,SSE,157,6.0,7.2,65,0.00,,,0.00,WUHU21623XXSP,2013-12-02 18:44:00,
2013-12-02 12:49:00,46.0,34.9,28.97,SE,135,4.7,11.6,65,0.00,,,0.00,WUHU21623XXSP,2013-12-02 18:49:00,
2013-12-02 12:54:00,46.0,34.5,28.97,ESE,112,2.9,11.6,64,0.00,,,0.00,WUHU21623XXSP,2013-12-02 18:54:00,
2013-12-02 12:59:00,46.0,34.5,28.97,East,90,3.6,6.7,64,0.00,,,0.00,WUHU21623XXSP,2013-12-02 18:59:00,
2013-12-02 13:04:00,45.7,34.2,28.97,SSE,157,0.9,8.7,64,0.00,,,0.00,WUHU21623XXSP,2013-12-02 19:04:00,
2013-12-02 13:09:00,45.7,34.2,28.96,SE,135,3.8,8.7,64,0.00,,,0.00,WUHU21623XXSP,2013-12-02 19:09:00,
2013-12-02 13:14:00,45.5,34.0,28.96,SE,135,6.7,7.2,64,0.00,,,0.00,WUHU21623XXSP,2013-12-02 19:14:00,
2013-12-02 13:19:00,45.5,34.4,28.95,SE,135,4.7,10.7,65,0.00,,,0.00,WUHU21623XXSP,2013-12-02 19:19:00,
2013-12-02 13:24:00,45.3,34.2,28.95,SE,135,0.0,10.7,65,0.00,,,0.00,WUHU21623XXSP,2013-12-02 19:24:00,
2013-12-02 13:29:00,45.3,34.2,28.95,SE,135,1.1,3.6,65,0.00,,,0.00,WUHU21623XXSP,2013-12-02 19:29:00,
2013-12-02 13:34:00,45.5,34.4,28.95,SE,135,8.3,8.3,65,0.00,,,0.00,WUHU21623XXSP,2013-12-02 19:34:00,
2013-12-02 13:39:00,45.5,34.4,28.95,SSE,157,5.1,8.3,65,0.00,,,0.00,WUHU21623XXSP,2013-12-02 19:39:00,
2013-12-02 13:44:00,45.5,34.4,28.95,ESE,112,5.1,8.9,65,0.00,,,0.00,WUHU21623XXSP,2013-12-02 19:44:00,
2013-12-02 13:49:00,45.7,34.6,28.94,SE,135,6.5,8.9,65,0.00,,,0.00,WUHU21623XXSP,2013-12-02 19:49:00,
2013-12-02 13:54:00,45.7,34.2,28.94,SE,135,4.5,6.5,64,0.00,,,0.00,WUHU21623XXSP,2013-12-02 19:54:00,
2013-12-02 13:59:00,45.7,34.2,28.94,ESE,112,5.6,6.5,64,0.00,,,0.00,WUHU21623XXSP,2013-12-02 19:59:00,
2013-12-02 14:04:00,45.7,34.2,28.95,SE,135,0.0,8.1,64,0.00,,,0.00,WUHU21623XXSP,2013-12-02 20:04:00,
2013-12-02 14:09:00,45.7,34.2,28.94,SE,135,6.9,8.1,64,0.00,,,0.00,WUHU21623XXSP,2013-12-02 20:09:00,
2013-12-02 14:14:00,45.3,33.8,28.94,SE,135,5.6,6.9,64,0.00,,,0.00,WUHU21623XXSP,2013-12-02 20:14:00,
2013-12-02 14:19:00,45.1,33.7,28.94,SE,135,0.0,7.4,64,0.00,,,0.00,WUHU21623XXSP,2013-12-02 20:19:00,
2013-12-02 14:24:00,45.0,33.5,28.93,SE,135,10.1,10.1,64,0.00,,,0.00,WUHU21623XXSP,2013-12-02 20:24:00,
2013-12-02 14:29:00,45.0,33.5,28.93,SE,135,6.7,10.1,64,0.00,,,0.00,WUHU21623XXSP,2013-12-02 20:29:00,
2013-12-02 14:34:00,44.6,33.5,28.93,SE,135,4.7,7.8,65,0.00,,,0.00,WUHU21623XXSP,2013-12-02 20:34:00,
2013-12-02 14:39:00,44.4,33.4,28.93,ESE,112,3.8,7.8,65,0.00,,,0.00,WUHU21623XXSP,2013-12-02 20:39:00,
2013-12-02 14:44:00,44.4,33.4,28.92,SE,135,1.1,3.8,65,0.00,,,0.00,WUHU21623XXSP,2013-12-02 20:44:00,
2013-12-02 14:49:00,44.2,33.6,28.92,ESE,112,0.0,5.1,66,0.00,,,0.00,WUHU21623XXSP,2013-12-02 20:49:00,
2013-12-02 14:54:00,44.2,33.6,28.92,SSE,157,9.4,9.4,66,0.00,,,0.00,WUHU21623XXSP,2013-12-02 20:54:00,
2013-12-02 14:59:00,44.1,33.8,28.92,SE,135,0.7,9.4,67,0.00,,,0.00,WUHU21623XXSP,2013-12-02 20:59:00,
2013-12-02 15:04:00,43.9,34.0,28.92,SE,135,1.3,1.3,68,0.00,,,0.00,WUHU21623XXSP,2013-12-02 21:04:00,
2013-12-02 15:09:00,43.5,33.7,28.92,SE,135,4.5,6.9,68,0.00,,,0.00,WUHU21623XXSP,2013-12-02 21:09:00,
2013-12-02 15:14:00,43.5,33.7,28.91,SE,135,1.6,6.9,68,0.00,,,0.00,WUHU21623XXSP,2013-12-02 21:14:00,
2013-12-02 15:19:00,43.3,33.9,28.91,SE,135,2.7,3.4,69,0.00,,,0.00,WUHU21623XXSP,2013-12-02 21:19:00,
2013-12-02 15:24:00,43.2,33.7,28.92,ESE,112,3.1,3.1,69,0.00,,,0.00,WUHU21623XXSP,2013-12-02 21:24:00,
2013-12-02 15:29:00,43.2,33.7,28.92,SE,135,2.2,3.1,69,0.00,,,0.00,WUHU21623XXSP,2013-12-02 21:29:00,
2013-12-02 15:34:00,43.0,34.0,28.91,SE,135,3.6,3.6,70,0.00,,,0.00,WUHU21623XXSP,2013-12-02 21:34:00,
2013-12-02 15:39:00,43.0,34.0,28.91,SE,135,0.0,3.6,70,0.00,,,0.00,WUHU21623XXSP,2013-12-02 21:39:00,
2013-12-02 15:44:00,42.6,33.9,28.91,East,90,0.0,3.6,71,0.00,,,0.00,WUHU21623XXSP,2013-12-02 21:44:00,
2013-12-02 15:49:00,42.6,33.9,28.91,SE,135,2.9,4.7,71,0.00,,,0.00,WUHU21623XXSP,2013-12-02 21:49:00,
2013-12-02 15:54:00,42.6,33.9,28.91,ENE,67,0.0,4.7,71,0.00,,,0.00,WUHU21623XXSP,2013-12-02 21:54:00,
2013-12-02 15:59:00,42.4,33.8,28.91,SE,135,0.0,2.0,71,0.00,,,0.00,WUHU21623XXSP,2013-12-02 21:59:00,
2013-12-02 16:04:00,42.1,33.7,28.91,SE,135,0.0,3.4,72,0.00,,,0.00,WUHU21623XXSP,2013-12-02 22:04:00,
2013-12-02 16:09:00,42.1,33.7,28.91,SE,135,2.9,3.4,72,0.00,,,0.00,WUHU21623XXSP,2013-12-02 22:09:00,
2013-12-02 16:14:00,41.9,33.5,28.91,SE,135,4.5,6.0,72,0.00,,,0.00,WUHU21623XXSP,2013-12-02 22:14:00,
2013-12-02 16:19:00,41.7,33.7,28.91,SSE,157,7.4,7.4,73,0.00,,,0.00,WUHU21623XXSP,2013-12-02 22:19:00,
2013-12-02 16:24:00,41.7,33.7,28.91,SE,135,4.0,7.4,73,0.00,,,0.00,WUHU21623XXSP,2013-12-02 22:24:00,
2013-12-02 16:29:00,41.5,33.5,28.91,ENE,67,2.2,4.0,73,0.00,,,0.00,WUHU21623XXSP,2013-12-02 22:29:00,
2013-12-02 16:34:00,41.4,33.5,28.90,SE,135,0.0,2.5,73,0.00,,,0.00,WUHU21623XXSP,2013-12-02 22:34:00,
2013-12-02 16:39:00,41.2,33.2,28.90,SE,135,0.0,6.9,73,0.00,,,0.00,WUHU21623XXSP,2013-12-02 22:39:00,
2013-12-02 16:44:00,41.0,33.0,28.90,SE,135,5.1,6.9,73,0.00,,,0.00,WUHU21623XXSP,2013-12-02 22:44:00,
2013-12-02 16:49:00,40.8,33.1,28.89,SSE,157,8.1,8.1,74,0.00,,,0.00,WUHU21623XXSP,2013-12-02 22:49:00,
2013-12-02 16:54:00,40.8,33.1,28.89,SE,135,0.0,8.1,74,0.00,,,0.00,WUHU21623XXSP,2013-12-02 22:54:00,
2013-12-02 16:59:00,40.6,33.1,28.88,SE,135,0.0,6.9,75,0.00,,,0.00,WUHU21623XXSP,2013-12-02 22:59:00,
2013-12-02 17:04:00,40.6,33.3,28.87,SE,135,3.8,6.9,75,0.00,,,0.00,WUHU21623XXSP,2013-12-02 23:04:00,
2013-12-02 17:09:00,40.5,33.1,28.87,ESE,112,14.5,14.5,75,0.00,,,0.00,WUHU21623XXSP,2013-12-02 23:09:00,
2013-12-02 17:14:00,40.3,32.9,28.87,South,180,2.0,14.5,75,0.00,,,0.00,WUHU21623XXSP,2013-12-02 23:14:00,
2013-12-02 17:19:00,40.1,33.1,28.87,NE,45,1.6,7.2,76,0.00,,,0.00,WUHU21623XXSP,2013-12-02 23:19:00,
2013-12-02 17:24:00,40.1,33.1,28.87,SSE,157,4.3,7.2,76,0.00,,,0.00,WUHU21623XXSP,2013-12-02 23:24:00,
2013-12-02 17:29:00,40.1,33.1,28.87,SSE,157,8.9,8.9,76,0.00,,,0.00,WUHU21623XXSP,2013-12-02 23:29:00,
2013-12-02 17:34:00,39.9,32.9,28.87,SSE,157,7.8,8.9,76,0.00,,,0.00,WUHU21623XXSP,2013-12-02 23:34:00,
2013-12-02 17:39:00,39.9,32.9,28.87,ESE,112,8.3,8.3,76,0.00,,,0.00,WUHU21623XXSP,2013-12-02 23:39:00,
2013-12-02 17:44:00,39.9,33.3,28.87,East,90,5.6,8.3,77,0.00,,,0.00,WUHU21623XXSP,2013-12-02 23:44:00,
2013-12-02 17:49:00,39.9,33.3,28.87,SE,135,7.6,8.9,77,0.00,,,0.00,WUHU21623XXSP,2013-12-02 23:49:00,
2013-12-02 17:54:00,39.9,33.3,28.87,SSE,157,4.0,8.9,77,0.00,,,0.00,WUHU21623XXSP,2013-12-02 23:54:00,
2013-12-02 17:59:00,39.9,33.3,28.86,ESE,112,5.1,6.7,77,0.00,,,0.00,WUHU21623XXSP,2013-12-02 23:59:00,
2013-12-02 18:04:00,39.9,33.3,28.88,SE,135,12.8,12.8,77,0.00,,,0.00,WUHU21623XXSP,2013-12-03 00:04:00,
2013-12-02 18:09:00,39.9,33.6,28.88,SE,135,2.0,12.8,78,0.00,,,0.00,WUHU21623XXSP,2013-12-03 00:09:00,
2013-12-02 18:14:00,39.9,33.6,28.89,SE,135,8.7,11.0,78,0.00,,,0.00,WUHU21623XXSP,2013-12-03 00:14:00,
2013-12-02 18:19:00,40.1,33.8,28.90,SE,135,2.7,11.0,78,0.00,,,0.00,WUHU21623XXSP,2013-12-03 00:19:00,
2013-12-02 18:24:00,40.1,33.8,28.90,SE,135,0.0,2.7,78,0.00,,,0.00,WUHU21623XXSP,2013-12-03 00:24:00,
2013-12-02 18:29:00,40.1,33.4,28.90,SE,135,1.6,1.6,77,0.00,,,0.00,WUHU21623XXSP,2013-12-03 00:29:00,
2013-12-02 18:34:00,40.3,33.6,28.90,SE,135,3.8,3.8,77,0.00,,,0.00,WUHU21623XXSP,2013-12-03 00:34:00,
2013-12-02 18:39:00,40.3,33.6,28.91,SSE,157,0.0,3.8,77,0.00,,,0.00,WUHU21623XXSP,2013-12-03 00:39:00,
2013-12-02 18:44:00,40.3,33.6,28.90,SE,135,2.5,4.0,77,0.00,,,0.00,WUHU21623XXSP,2013-12-03 00:44:00,
2013-12-02 18:49:00,40.5,33.8,28.90,ESE,112,0.0,4.0,77,0.00,,,0.00,WUHU21623XXSP,2013-12-03 00:49:00,
2013-12-02 18:54:00,40.5,33.8,28.91,SE,135,0.0,4.3,77,0.00,,,0.00,WUHU21623XXSP,2013-12-03 00:54:00,
2013-12-02 18:59:00,40.6,33.9,28.90,SE,135,7.2,7.2,77,0.00,,,0.00,WUHU21623XXSP,2013-12-03 00:59:00,
2013-12-02 19:04:00,40.6,33.9,28.90,SE,135,6.7,7.2,77,0.00,,,0.00,WUHU21623XXSP,2013-12-03 01:04:00,
2013-12-02 19:09:00,40.6,33.9,28.90,SE,135,3.6,6.7,77,0.00,,,0.00,WUHU21623XXSP,2013-12-03 01:09:00,
2013-12-02 19:14:00,40.6,33.9,28.90,SSE,157,4.0,6.3,77,0.00,,,0.00,WUHU21623XXSP,2013-12-03 01:14:00,
2013-12-02 19:19:00,40.8,34.4,28.91,SE,135,6.0,6.3,78,0.00,,,0.00,WUHU21623XXSP,2013-12-03 01:19:00,
2013-12-02 19:24:00,40.8,34.4,28.91,SSE,157,5.1,6.0,78,0.00,,,0.00,WUHU21623XXSP,2013-12-03 01:24:00,
2013-12-02 19:29:00,41.2,34.8,28.91,SE,135,7.6,7.6,78,0.00,,,0.00,WUHU21623XXSP,2013-12-03 01:29:00,
2013-12-02 19:34:00,41.4,35.0,28.91,East,90,0.0,7.6,78,0.00,,,0.00,WUHU21623XXSP,2013-12-03 01:34:00,
2013-12-02 19:39:00,41.4,34.6,28.91,SE,135,5.4,5.4,77,0.00,,,0.00,WUHU21623XXSP,2013-12-03 01:39:00,
2013-12-02 19:44:00,41.4,34.6,28.91,SE,135,2.0,5.4,77,0.00,,,0.00,WUHU21623XXSP,2013-12-03 01:44:00,
2013-12-02 19:49:00,41.4,34.6,28.91,SE,135,4.0,4.3,77,0.00,,,0.00,WUHU21623XXSP,2013-12-03 01:49:00,
2013-12-02 19:54:00,41.4,34.6,28.91,SSE,157,5.4,5.4,77,0.00,,,0.00,WUHU21623XXSP,2013-12-03 01:54:00,
2013-12-02 19:59:00,41.2,34.4,28.91,SE,135,3.6,5.4,77,0.00,,,0.00,WUHU21623XXSP,2013-12-03 01:59:00,
2013-12-02 20:04:00,41.0,34.3,28.91,SE,135,6.9,6.9,77,0.00,,,0.00,WUHU21623XXSP,2013-12-03 02:04:00,
2013-12-02 20:09:00,40.8,34.1,28.90,SE,135,3.1,6.9,77,0.00,,,0.00,WUHU21623XXSP,2013-12-03 02:09:00,
2013-12-02 20:14:00,40.6,33.9,28.91,SSE,157,1.8,3.1,77,0.00,,,0.00,WUHU21623XXSP,2013-12-03 02:14:00,
2013-12-02 20:19:00,40.5,33.8,28.91,SE,135,0.0,3.1,77,0.00,,,0.00,WUHU21623XXSP,2013-12-03 02:19:00,
2013-12-02 20:24:00,40.3,33.6,28.91,SE,135,3.1,4.5,77,0.00,,,0.00,WUHU21623XXSP,2013-12-03 02:24:00,
2013-12-02 20:29:00,40.1,33.4,28.90,SSE,157,0.0,4.5,77,0.00,,,0.00,WUHU21623XXSP,2013-12-03 02:29:00,
2013-12-02 20:34:00,39.9,33.4,28.90,SE,135,0.0,3.1,78,0.00,,,0.00,WUHU21623XXSP,2013-12-03 02:34:00,
2013-12-02 20:39:00,39.9,33.6,28.90,SE,135,0.0,6.5,78,0.00,,,0.00,WUHU21623XXSP,2013-12-03 02:39:00,
2013-12-02 20:44:00,39.7,33.4,28.90,SE,135,1.1,6.5,78,0.00,,,0.00,WUHU21623XXSP,2013-12-03 02:44:00,
2013-12-02 20:49:00,39.7,33.4,28.90,SE,135,5.1,5.1,78,0.00,,,0.00,WUHU21623XXSP,2013-12-03 02:49:00,
2013-12-02 20:54:00,39.6,33.3,28.90,SE,135,4.9,5.1,78,0.00,,,0.00,WUHU21623XXSP,2013-12-03 02:54:00,
2013-12-02 20:59:00,39.6,33.3,28.90,SSE,157,1.6,4.9,78,0.00,,,0.00,WUHU21623XXSP,2013-12-03 02:59:00,
2013-12-02 21:04:00,39.4,33.1,28.90,SE,135,2.2,4.3,78,0.00,,,0.00,WUHU21623XXSP,2013-12-03 03:04:00,
2013-12-02 21:09:00,39.6,33.3,28.90,SE,135,3.8,7.2,78,0.00,,,0.00,WUHU21623XXSP,2013-12-03 03:09:00,
2013-12-02 21:14:00,39.4,33.4,28.90,ESE,112,0.7,7.2,79,0.00,,,0.00,WUHU21623XXSP,2013-12-03 03:14:00,
2013-12-02 21:19:00,39.6,33.6,28.90,SE,135,2.0,7.4,79,0.00,,,0.00,WUHU21623XXSP,2013-12-03 03:19:00,
2013-12-02 21:24:00,39.4,33.4,28.89,SE,135,2.7,8.5,79,0.00,,,0.00,WUHU21623XXSP,2013-12-03 03:24:00,
2013-12-02 21:29:00,39.4,33.4,28.89,SSE,157,4.5,8.5,79,0.00,,,0.00,WUHU21623XXSP,2013-12-03 03:29:00,
2013-12-02 21:34:00,39.4,33.4,28.89,SSE,157,2.5,5.4,79,0.00,,,0.00,WUHU21623XXSP,2013-12-03 03:34:00,
2013-12-02 21:39:00,39.4,33.4,28.89,SE,135,2.9,8.5,79,0.00,,,0.00,WUHU21623XXSP,2013-12-03 03:39:00,
2013-12-02 21:44:00,39.4,33.4,28.90,SE,135,6.9,8.5,79,0.00,,,0.00,WUHU21623XXSP,2013-12-03 03:44:00,
2013-12-02 21:49:00,39.4,33.4,28.89,SSE,157,4.5,7.2,79,0.00,,,0.00,WUHU21623XXSP,2013-12-03 03:49:00,
2013-12-02 21:54:00,39.4,33.4,28.89,SE,135,0.0,7.2,79,0.00,,,0.00,WUHU21623XXSP,2013-12-03 03:54:00,
2013-12-02 21:59:00,39.4,33.8,28.88,SE,135,10.3,11.6,80,0.00,,,0.00,WUHU21623XXSP,2013-12-03 03:59:00,
2013-12-02 22:04:00,39.4,33.8,28.89,SSE,157,6.9,11.6,80,0.00,,,0.00,WUHU21623XXSP,2013-12-03 04:04:00,
2013-12-02 22:09:00,39.2,33.6,28.88,SSE,157,7.6,7.8,80,0.00,,,0.00,WUHU21623XXSP,2013-12-03 04:09:00,
2013-12-02 22:14:00,39.0,33.4,28.88,SE,135,2.0,7.6,80,0.00,,,0.00,WUHU21623XXSP,2013-12-03 04:14:00,
2013-12-02 22:19:00,39.0,33.4,28.88,ESE,112,8.7,8.7,80,0.00,,,0.00,WUHU21623XXSP,2013-12-03 04:19:00,
2013-12-02 22:24:00,39.0,33.7,28.88,SSE,157,7.2,8.7,81,0.00,,,0.00,WUHU21623XXSP,2013-12-03 04:24:00,
2013-12-02 22:29:00,39.0,33.7,28.88,ESE,112,4.0,7.2,81,0.00,,,0.00,WUHU21623XXSP,2013-12-03 04:29:00,
2013-12-02 22:34:00,39.2,33.7,28.88,SE,135,8.9,8.9,81,0.00,,,0.00,WUHU21623XXSP,2013-12-03 04:34:00,
2013-12-02 22:40:00,39.2,33.9,28.88,SE,135,7.4,8.9,81,0.00,,,0.00,WUHU21623XXSP,2013-12-03 04:40:00,
2013-12-02 22:45:00,39.0,33.7,28.88,SE,135,7.2,8.9,81,0.00,,,0.00,WUHU21623XXSP,2013-12-03 04:45:00,
2013-12-02 22:56:00,39.0,34.0,28.88,SSE,158,0.0,9.4,82,0.00,,,0.00,WUHU21623XXSP,2013-12-03 04:56:00,
2013-12-02 23:56:00,38.5,33.5,28.87,SSE,158,1.3,1.3,82,0.00,,,0.00,WUHU21623XXSP,2013-12-03 05:56:00,